Weather Roundup
Issued by NWS

Home | Current Version | Previous Version | Graphics & Text | Print | Product List | Glossary Off
Versions: 1 2 3 4 5 6 7 8 9 10 11 12 13 14 15 16 17 18 19 20 21 22 23 24 25 26 27 28 29 30 31 32 33 34 35 36 37 38 39 40 41 42 43 44 45 46 47 48 49 50

433
NZUS93 KARX 201459
HRRWXR

CURRENT HOURLY OBSERVATIONS ACROSS
MUCH OF THE UPPER MISSISSIPPI VALLEY
NATIONAL WEATHER SERVICE LA CROSSE WI
1000 AM CDT SUN MAY 20 2018


...SOUTHEAST MINNESOTA...


CITY           SKY/WX    TMP DP  RH WIND       PRES   REMARKS
ROCHESTER      NOT AVBL
ROCHESTER/MAYO CLOUDY    48  42  79 NE6       30.21R
WINONA         CLOUDY    52  43  71 E6        30.20S
AUSTIN         CLOUDY    48  43  81 NE8       30.19R
ALBERT LEA     CLOUDY    52  39  62 E12       30.19S
DODGE CENTER   CLOUDY    48  39  71 NE13      30.20S
PRESTON        CLOUDY    48  42  80 NE7G16    30.20R
OWATONNA       CLOUDY    48  43  81 NE14      30.21S
FARIBAULT      CLOUDY    50  39  66 CALM      30.23R
$$

...ELSEWHERE IN MINNESOTA...


CITY           SKY/WX    TMP DP  RH WIND       PRES   REMARKS
MINNEAPOLIS    PTSUNNY   54  38  54 NE7       30.25R
INTNL FALLS    NOT AVBL
DULUTH         NOT AVBL
RED WING       CLOUDY    50  36  57 E7        30.23R
REDWOOD FALLS  CLOUDY    54  36  50 E7        30.22R
MANKATO        CLOUDY    50  39  66 E13       30.22S
WORTHINGTON    NOT AVBL
FAIRMONT       NOT AVBL
$$

...SOUTHWEST WISCONSIN...


CITY           SKY/WX    TMP DP  RH WIND       PRES   REMARKS
LA CROSSE      CLOUDY    50  47  89 NE7       30.23R
PRAIRIE DU CHI LGT RAIN  53  50  89 NE5       30.19R
BOSCOBEL       CLOUDY    52  48  86 NE8       30.20R
LONE ROCK      NOT AVBL
PLATTEVILLE    CLOUDY    52  52  99 E16       30.18R
FORT MC COY    CLOUDY    48  45  91 E6        30.24R
MAUSTON-NEW LI CLOUDY    47  44  89 E3        30.23R
VIROQUA        CLOUDY    47  47  99 E10G16    30.20R
WIS DELLS      CLOUDY    48  43  82 E8        30.22S
$$

...ELSEWHERE IN WISCONSIN...


CITY           SKY/WX    TMP DP  RH WIND       PRES   REMARKS
MILWAUKEE      RAIN      43  40  89 N14G25    30.24R FOG
MADISON        LGT RAIN  48  46  93 E8        30.21R
GREEN BAY      FAIR      51  41  68 NE13G22   30.25R
EAU CLAIRE     NOT AVBL
BLACK RVR FLS  CLOUDY    53  38  56 E8        30.23R
MEDFORD        FAIR      50  30  47 E12G18    30.25R
WAUSAU         NOT AVBL
WIS RAPIDS     NOT AVBL
MARSHFIELD     NOT AVBL
RICE LAKE      FAIR      52  30  43 CALM      30.28R
$$

...NORTHEAST IOWA...


CITY           SKY/WX    TMP DP  RH WIND       PRES   REMARKS
WATERLOO       NOT AVBL
DUBUQUE        CLOUDY    50  47  89 E14       30.18R
DECORAH        CLOUDY    50  48  93 NE9       30.17R
MASON CITY     CLOUDY    52  45  77 NE13      30.19R
CHARLES CITY   CLOUDY    50  48  93 NE12      30.18R
OELWEIN        CLOUDY    55  52  88 E16       30.16R
$$

...ELSEWHERE IN IOWA...


CITY           SKY/WX    TMP DP  RH WIND       PRES   REMARKS
DES MOINES     NOT AVBL
IOWA CITY      CLOUDY    59  55  87 E12       30.13R
FORT DODGE     NOT AVBL
MARSHALLTOWN   CLOUDY    56  54  93 NE12      30.13R
CEDAR RAPIDS   CLOUDY    57  55  93 E17       30.11R
$$

...NORTHERN ILLINOIS...


CITY           SKY/WX    TMP DP  RH WIND       PRES   REMARKS
CHICAGO-OHARE  CLOUDY    46  41  82 NE17      30.20R
CHICAGO-MIDWAY NOT AVBL
MOLINE         CLOUDY    60  53  77 E16       30.12S
ROCKFORD       TSTM      45  44  97 E13       30.20F FOG
PEORIA         NOT AVBL
$$

NOTE: "FAIR" INDICATES FEW OR NO CLOUDS BELOW 12,000 FEET WITH NO
SIGNIFICANT WEATHER AND/OR OBSTRUCTIONS TO VISIBILITY. WIND
SPEEDS ARE IN MILES-PER-HOUR.




USA.gov is the U.S. government's official web portal to all federal, state and local government web resources and services.